Time,TemperatureF,DewpointF,PressureIn,WindDirection,WindDirectionDegrees,WindSpeedMPH,WindSpeedGustMPH,Humidity,HourlyPrecipIn,Conditions,Clouds,dailyrainin,SolarRadiationWatts/m^2,SoftwareType,DateUTC
2013-02-09 00:01:00,24.0,2.0,-100.00,NW,314,1.0,4.0,38,0.00,,,0.00,1.000000,,2013-02-09 07:01:00,
2013-02-09 00:11:00,24.0,2.0,-100.00,NW,314,1.0,4.0,38,0.00,,,0.00,1.000000,,2013-02-09 07:11:00,
2013-02-09 00:21:00,24.0,2.0,-100.00,NW,314,1.0,4.0,38,0.00,,,0.00,1.000000,,2013-02-09 07:21:00,
2013-02-09 00:42:00,22.0,1.0,-100.00,NNW,338,0.0,5.0,40,0.00,,,0.00,1.000000,,2013-02-09 07:42:00,
2013-02-09 00:52:00,22.0,1.0,-100.00,NNW,338,0.0,5.0,40,0.00,,,0.00,1.000000,,2013-02-09 07:52:00,
2013-02-09 01:01:00,22.0,1.0,-100.00,NNW,338,0.0,5.0,40,0.00,,,0.00,1.000000,,2013-02-09 08:01:00,
2013-02-09 01:11:00,22.0,1.0,-100.00,NNW,338,0.0,5.0,40,0.00,,,0.00,1.000000,,2013-02-09 08:11:00,
2013-02-09 01:21:00,22.0,1.0,-100.00,NNW,338,0.0,5.0,40,0.00,,,0.00,1.000000,,2013-02-09 08:21:00,
2013-02-09 01:42:00,20.0,2.0,-100.00,WSW,238,2.0,4.0,45,0.00,,,0.00,1.000000,,2013-02-09 08:42:00,
2013-02-09 01:52:00,20.0,2.0,-100.00,WSW,238,2.0,4.0,45,0.00,,,0.00,1.000000,,2013-02-09 08:52:00,
2013-02-09 02:03:00,20.0,2.0,-100.00,WSW,238,2.0,4.0,45,0.00,,,0.00,1.000000,,2013-02-09 09:03:00,
2013-02-09 02:11:00,20.0,2.0,-100.00,WSW,238,2.0,4.0,45,0.00,,,0.00,1.000000,,2013-02-09 09:11:00,
2013-02-09 02:21:00,20.0,2.0,-100.00,WSW,238,2.0,4.0,45,0.00,,,0.00,1.000000,,2013-02-09 09:21:00,
2013-02-09 02:42:00,16.0,2.0,-100.00,NW,310,1.0,4.0,53,0.00,,,0.00,1.000000,,2013-02-09 09:42:00,
2013-02-09 02:52:00,16.0,2.0,-100.00,NW,310,1.0,4.0,53,0.00,,,0.00,1.000000,,2013-02-09 09:52:00,
2013-02-09 03:01:00,16.0,2.0,-100.00,NW,310,1.0,4.0,53,0.00,,,0.00,1.000000,,2013-02-09 10:01:00,
2013-02-09 03:11:00,16.0,2.0,-100.00,NW,310,1.0,4.0,53,0.00,,,0.00,1.000000,,2013-02-09 10:11:00,
2013-02-09 03:21:00,16.0,2.0,-100.00,NW,310,1.0,4.0,53,0.00,,,0.00,1.000000,,2013-02-09 10:21:00,
2013-02-09 03:42:00,19.0,4.0,-100.00,West,272,1.0,6.0,52,0.00,,,0.00,1.000000,,2013-02-09 10:42:00,
2013-02-09 03:52:00,19.0,4.0,-100.00,West,272,1.0,6.0,52,0.00,,,0.00,1.000000,,2013-02-09 10:52:00,
2013-02-09 04:01:00,19.0,4.0,-100.00,West,272,1.0,6.0,52,0.00,,,0.00,1.000000,,2013-02-09 11:01:00,
2013-02-09 04:11:00,19.0,4.0,-100.00,West,272,1.0,6.0,52,0.00,,,0.00,1.000000,,2013-02-09 11:11:00,
2013-02-09 04:21:00,19.0,4.0,-100.00,West,272,1.0,6.0,52,0.00,,,0.00,1.000000,,2013-02-09 11:21:00,
2013-02-09 04:42:00,16.0,3.0,-100.00,WSW,258,0.0,5.0,57,0.00,,,0.00,1.000000,,2013-02-09 11:42:00,
2013-02-09 04:52:00,16.0,3.0,-100.00,WSW,258,0.0,5.0,57,0.00,,,0.00,1.000000,,2013-02-09 11:52:00,
2013-02-09 05:02:00,16.0,3.0,-100.00,WSW,258,0.0,5.0,57,0.00,,,0.00,1.000000,,2013-02-09 12:02:00,
2013-02-09 05:11:00,16.0,3.0,-100.00,WSW,258,0.0,5.0,57,0.00,,,0.00,1.000000,,2013-02-09 12:11:00,
2013-02-09 05:21:00,16.0,3.0,-100.00,WSW,258,0.0,5.0,57,0.00,,,0.00,1.000000,,2013-02-09 12:21:00,
2013-02-09 05:42:00,13.0,4.0,-100.00,NNW,336,0.0,4.0,67,0.00,,,0.00,1.000000,,2013-02-09 12:42:00,
2013-02-09 05:52:00,13.0,4.0,-100.00,NNW,336,0.0,4.0,67,0.00,,,0.00,1.000000,,2013-02-09 12:52:00,
2013-02-09 06:02:00,13.0,4.0,-100.00,NNW,336,0.0,4.0,67,0.00,,,0.00,1.000000,,2013-02-09 13:02:00,
2013-02-09 06:11:00,13.0,4.0,-100.00,NNW,336,0.0,4.0,67,0.00,,,0.00,1.000000,,2013-02-09 13:11:00,
2013-02-09 06:21:00,13.0,4.0,-100.00,NNW,336,0.0,4.0,67,0.00,,,0.00,1.000000,,2013-02-09 13:21:00,
2013-02-09 06:42:00,14.0,5.0,-100.00,North,356,2.0,5.0,68,0.00,,,0.00,1.000000,,2013-02-09 13:42:00,
2013-02-09 06:52:00,14.0,5.0,-100.00,North,356,2.0,5.0,68,0.00,,,0.00,1.000000,,2013-02-09 13:52:00,
2013-02-09 07:01:00,14.0,5.0,-100.00,North,356,2.0,5.0,68,0.00,,,0.00,1.000000,,2013-02-09 14:01:00,
2013-02-09 07:11:00,14.0,5.0,-100.00,North,356,2.0,5.0,68,0.00,,,0.00,1.000000,,2013-02-09 14:11:00,
2013-02-09 07:21:00,14.0,5.0,-100.00,North,356,2.0,5.0,68,0.00,,,0.00,1.000000,,2013-02-09 14:21:00,
2013-02-09 07:42:00,13.0,5.0,-100.00,WNW,301,2.0,4.0,70,0.00,,,0.00,1.000000,,2013-02-09 14:42:00,
2013-02-09 07:52:00,13.0,5.0,-100.00,WNW,301,2.0,4.0,70,0.00,,,0.00,1.000000,,2013-02-09 14:52:00,
2013-02-09 08:02:00,13.0,5.0,-100.00,WNW,301,2.0,4.0,70,0.00,,,0.00,1.000000,,2013-02-09 15:02:00,
2013-02-09 08:11:00,13.0,5.0,-100.00,WNW,301,2.0,4.0,70,0.00,,,0.00,1.000000,,2013-02-09 15:11:00,
2013-02-09 08:21:00,13.0,5.0,-100.00,WNW,301,2.0,4.0,70,0.00,,,0.00,1.000000,,2013-02-09 15:21:00,
2013-02-09 08:42:00,17.0,7.0,-100.00,ESE,114,1.0,4.0,64,0.00,,,0.00,17.000000,,2013-02-09 15:42:00,
2013-02-09 08:52:00,17.0,7.0,-100.00,ESE,114,1.0,4.0,64,0.00,,,0.00,17.000000,,2013-02-09 15:52:00,
2013-02-09 09:01:00,17.0,7.0,-100.00,ESE,114,1.0,4.0,64,0.00,,,0.00,17.000000,,2013-02-09 16:01:00,
2013-02-09 09:11:00,17.0,7.0,-100.00,ESE,114,1.0,4.0,64,0.00,,,0.00,17.000000,,2013-02-09 16:11:00,
2013-02-09 09:22:00,17.0,7.0,-100.00,ESE,114,1.0,4.0,64,0.00,,,0.00,17.000000,,2013-02-09 16:22:00,
2013-02-09 09:42:00,24.0,10.0,-100.00,SW,224,0.0,2.0,55,0.00,,,0.00,90.000000,,2013-02-09 16:42:00,
2013-02-09 09:52:00,24.0,10.0,-100.00,SW,224,0.0,2.0,55,0.00,,,0.00,90.000000,,2013-02-09 16:52:00,
2013-02-09 10:01:00,24.0,10.0,-100.00,SW,224,0.0,2.0,55,0.00,,,0.00,90.000000,,2013-02-09 17:01:00,
2013-02-09 10:11:00,24.0,10.0,-100.00,SW,224,0.0,2.0,55,0.00,,,0.00,90.000000,,2013-02-09 17:11:00,
2013-02-09 10:21:00,24.0,10.0,-100.00,SW,224,0.0,2.0,55,0.00,,,0.00,90.000000,,2013-02-09 17:21:00,
2013-02-09 10:42:00,31.0,13.0,-100.00,East,83,5.0,9.0,46,0.00,,,0.00,224.000000,,2013-02-09 17:42:00,
2013-02-09 10:52:00,31.0,13.0,-100.00,East,83,5.0,9.0,46,0.00,,,0.00,224.000000,,2013-02-09 17:52:00,
2013-02-09 11:02:00,31.0,13.0,-100.00,East,83,5.0,9.0,46,0.00,,,0.00,224.000000,,2013-02-09 18:02:00,
2013-02-09 11:12:00,31.0,13.0,-100.00,East,83,5.0,9.0,46,0.00,,,0.00,224.000000,,2013-02-09 18:12:00,
2013-02-09 11:23:00,31.0,13.0,-100.00,East,83,5.0,9.0,46,0.00,,,0.00,224.000000,,2013-02-09 18:23:00,
2013-02-09 11:42:00,30.0,13.0,-100.00,SSE,147,2.0,8.0,48,0.00,,,0.00,214.000000,,2013-02-09 18:42:00,
2013-02-09 11:52:00,30.0,13.0,-100.00,SSE,147,2.0,8.0,48,0.00,,,0.00,214.000000,,2013-02-09 18:52:00,
2013-02-09 12:01:00,30.0,13.0,-100.00,SSE,147,2.0,8.0,48,0.00,,,0.00,214.000000,,2013-02-09 19:01:00,
2013-02-09 12:11:00,30.0,13.0,-100.00,SSE,147,2.0,8.0,48,0.00,,,0.00,214.000000,,2013-02-09 19:11:00,
2013-02-09 12:22:00,30.0,13.0,-100.00,SSE,147,2.0,8.0,48,0.00,,,0.00,214.000000,,2013-02-09 19:22:00,
2013-02-09 12:42:00,27.0,21.0,-100.00,East,95,0.0,6.0,79,0.00,,,0.00,146.000000,,2013-02-09 19:42:00,
2013-02-09 12:52:00,27.0,21.0,-100.00,East,95,0.0,6.0,79,0.00,,,0.00,146.000000,,2013-02-09 19:52:00,
2013-02-09 13:01:00,27.0,21.0,-100.00,East,95,0.0,6.0,79,0.00,,,0.00,146.000000,,2013-02-09 20:01:00,
2013-02-09 13:11:00,27.0,21.0,-100.00,East,95,0.0,6.0,79,0.00,,,0.00,146.000000,,2013-02-09 20:11:00,
2013-02-09 13:21:00,27.0,21.0,-100.00,East,95,0.0,6.0,79,0.00,,,0.00,146.000000,,2013-02-09 20:21:00,
2013-02-09 13:42:00,28.0,15.0,-100.00,WSW,239,6.0,13.0,58,0.00,,,0.00,174.000000,,2013-02-09 20:42:00,
2013-02-09 13:52:00,28.0,15.0,-100.00,WSW,239,6.0,13.0,58,0.00,,,0.00,174.000000,,2013-02-09 20:52:00,
2013-02-09 14:02:00,28.0,15.0,-100.00,WSW,239,6.0,13.0,58,0.00,,,0.00,174.000000,,2013-02-09 21:02:00,
2013-02-09 14:11:00,28.0,15.0,-100.00,WSW,239,6.0,13.0,58,0.00,,,0.00,174.000000,,2013-02-09 21:11:00,
2013-02-09 14:21:00,28.0,15.0,-100.00,WSW,239,6.0,13.0,58,0.00,,,0.00,174.000000,,2013-02-09 21:21:00,
2013-02-09 14:42:00,33.0,11.0,-100.00,WSW,239,6.0,15.0,39,0.00,,,0.00,288.000000,,2013-02-09 21:42:00,
2013-02-09 14:52:00,33.0,11.0,-100.00,WSW,239,6.0,15.0,39,0.00,,,0.00,288.000000,,2013-02-09 21:52:00,
2013-02-09 15:11:00,33.0,11.0,-100.00,WSW,239,6.0,15.0,39,0.00,,,0.00,288.000000,,2013-02-09 22:11:00,
2013-02-09 15:21:00,33.0,11.0,-100.00,WSW,239,6.0,15.0,39,0.00,,,0.00,288.000000,,2013-02-09 22:21:00,
2013-02-09 15:42:00,29.0,19.0,-100.00,ENE,65,8.0,11.0,66,0.00,,,0.00,188.000000,,2013-02-09 22:42:00,
2013-02-09 15:52:00,29.0,19.0,-100.00,ENE,65,8.0,11.0,66,0.00,,,0.00,188.000000,,2013-02-09 22:52:00,
2013-02-09 16:01:00,29.0,19.0,-100.00,ENE,65,8.0,11.0,66,0.00,,,0.00,188.000000,,2013-02-09 23:01:00,
2013-02-09 16:11:00,29.0,19.0,-100.00,ENE,65,8.0,11.0,66,0.00,,,0.00,188.000000,,2013-02-09 23:11:00,
2013-02-09 16:21:00,29.0,19.0,-100.00,ENE,65,8.0,11.0,66,0.00,,,0.00,188.000000,,2013-02-09 23:21:00,
2013-02-09 16:42:00,27.0,19.0,-100.00,ENE,69,8.0,13.0,70,0.00,,,0.00,107.000000,,2013-02-09 23:42:00,
2013-02-09 16:52:00,27.0,19.0,-100.00,ENE,69,8.0,13.0,70,0.00,,,0.00,107.000000,,2013-02-09 23:52:00,
2013-02-09 17:02:00,27.0,19.0,-100.00,ENE,69,8.0,13.0,70,0.00,,,0.00,107.000000,,2013-02-10 00:02:00,
2013-02-09 17:12:00,27.0,19.0,-100.00,ENE,69,8.0,13.0,70,0.00,,,0.00,107.000000,,2013-02-10 00:12:00,
2013-02-09 17:21:00,27.0,19.0,-100.00,ENE,69,8.0,13.0,70,0.00,,,0.00,107.000000,,2013-02-10 00:21:00,
2013-02-09 17:42:00,25.0,19.0,-100.00,ENE,69,5.0,9.0,79,0.00,,,0.00,75.000000,,2013-02-10 00:42:00,
2013-02-09 17:52:00,25.0,19.0,-100.00,ENE,69,5.0,9.0,79,0.00,,,0.00,75.000000,,2013-02-10 00:52:00,
2013-02-09 18:01:00,25.0,19.0,-100.00,ENE,69,5.0,9.0,79,0.00,,,0.00,75.000000,,2013-02-10 01:01:00,
2013-02-09 18:12:00,25.0,19.0,-100.00,ENE,69,5.0,9.0,79,0.00,,,0.00,75.000000,,2013-02-10 01:12:00,
2013-02-09 18:21:00,25.0,19.0,-100.00,ENE,69,5.0,9.0,79,0.00,,,0.00,75.000000,,2013-02-10 01:21:00,
2013-02-09 18:42:00,23.0,19.0,-100.00,East,79,3.0,8.0,84,0.00,,,0.00,10.000000,,2013-02-10 01:42:00,
2013-02-09 18:52:00,23.0,19.0,-100.00,East,79,3.0,8.0,84,0.00,,,0.00,10.000000,,2013-02-10 01:52:00,
2013-02-09 19:01:00,23.0,19.0,-100.00,East,79,3.0,8.0,84,0.00,,,0.00,10.000000,,2013-02-10 02:01:00,
2013-02-09 19:11:00,23.0,19.0,-100.00,East,79,3.0,8.0,84,0.00,,,0.00,10.000000,,2013-02-10 02:11:00,
2013-02-09 19:22:00,23.0,19.0,-100.00,East,79,3.0,8.0,84,0.00,,,0.00,10.000000,,2013-02-10 02:22:00,
2013-02-09 19:42:00,21.0,17.0,-100.00,WNW,289,1.0,6.0,85,0.00,,,0.00,1.000000,,2013-02-10 02:42:00,
2013-02-09 19:52:00,21.0,17.0,-100.00,WNW,289,1.0,6.0,85,0.00,,,0.00,1.000000,,2013-02-10 02:52:00,
2013-02-09 20:02:00,21.0,17.0,-100.00,WNW,289,1.0,6.0,85,0.00,,,0.00,1.000000,,2013-02-10 03:02:00,
2013-02-09 20:11:00,21.0,17.0,-100.00,WNW,289,1.0,6.0,85,0.00,,,0.00,1.000000,,2013-02-10 03:11:00,
2013-02-09 20:21:00,21.0,17.0,-100.00,WNW,289,1.0,6.0,85,0.00,,,0.00,1.000000,,2013-02-10 03:21:00,
2013-02-09 20:42:00,18.0,15.0,-100.00,West,274,0.0,4.0,87,0.00,,,0.00,1.000000,,2013-02-10 03:42:00,
2013-02-09 20:52:00,18.0,15.0,-100.00,West,274,0.0,4.0,87,0.00,,,0.00,1.000000,,2013-02-10 03:52:00,
2013-02-09 21:01:00,18.0,15.0,-100.00,West,274,0.0,4.0,87,0.00,,,0.00,1.000000,,2013-02-10 04:01:00,
2013-02-09 21:11:00,18.0,15.0,-100.00,West,274,0.0,4.0,87,0.00,,,0.00,1.000000,,2013-02-10 04:11:00,
2013-02-09 21:21:00,18.0,15.0,-100.00,West,274,0.0,4.0,87,0.00,,,0.00,1.000000,,2013-02-10 04:21:00,
2013-02-09 21:42:00,16.0,13.0,-100.00,SW,236,2.0,5.0,89,0.00,,,0.00,1.000000,,2013-02-10 04:42:00,
2013-02-09 21:52:00,16.0,13.0,-100.00,SW,236,2.0,5.0,89,0.00,,,0.00,1.000000,,2013-02-10 04:52:00,
2013-02-09 22:01:00,16.0,13.0,-100.00,SW,236,2.0,5.0,89,0.00,,,0.00,1.000000,,2013-02-10 05:01:00,
2013-02-09 22:11:00,16.0,13.0,-100.00,SW,236,2.0,5.0,89,0.00,,,0.00,1.000000,,2013-02-10 05:11:00,
2013-02-09 22:22:00,16.0,13.0,-100.00,SW,236,2.0,5.0,89,0.00,,,0.00,1.000000,,2013-02-10 05:22:00,
2013-02-09 22:42:00,23.0,4.0,-100.00,West,263,6.0,16.0,43,0.00,,,0.00,1.000000,,2013-02-10 05:42:00,
2013-02-09 22:52:00,23.0,4.0,-100.00,West,263,6.0,16.0,43,0.00,,,0.00,1.000000,,2013-02-10 05:52:00,
2013-02-09 23:42:00,22.0,4.0,-100.00,WSW,244,4.0,10.0,46,0.00,,,0.00,1.000000,,2013-02-10 06:42:00,
2013-02-09 23:52:00,22.0,4.0,-100.00,WSW,244,4.0,10.0,46,0.00,,,0.00,1.000000,,2013-02-10 06:52:00,